Regional Weather Roundup
Issued by NWS

Home | Current Version | Previous Version | Text Only | Print | Product List | Glossary Off
Versions: 1 2 3 4 5 6 7 8 9 10 11 12 13 14 15 16 17 18 19 20 21 22 23 24 25 26 27 28 29 30 31 32 33 34 35 36 37 38 39 40 41 42 43 44 45 46 47 48 49 50

000
ASUS43 KMKX 291221
RWRWI

WISCONSIN REGIONAL WEATHER ROUNDUP
NATIONAL WEATHER SERVICE MILWAUKEE/SULLIVAN WI
700 AM CDT TUE JUL 29 2014

NOTE: "FAIR" INDICATES FEW OR NO CLOUDS BELOW 12,000 FEET WITH NO
SIGNIFICANT WEATHER AND/OR OBSTRUCTIONS TO VISIBILITY.

WIZ001-002-006>008-014>016-023>028-291300-
NORTHWEST WISCONSIN

CITY           SKY/WX    TMP DP  RH WIND       PRES   REMARKS
SUPERIOR ARPT  MOSUNNY   58  55  88 SW6       30.07F
6HR MIN TEMP:  53; 6HR MAX TEMP:  60;

ASHLAND        CLOUDY    58  54  86 SW6       30.06S
6HR MIN TEMP:  54; 6HR MAX TEMP:  59;

HAYWARD        CLOUDY    54  52  93 CALM      30.09S
6HR MIN TEMP:  50; 6HR MAX TEMP:  62;

SIREN          SUNNY     56  55  96 CALM      30.11R
6HR MIN TEMP:  51; 6HR MAX TEMP:  57;

RICE LAKE      NOT AVBL
LADYSMITH      PTSUNNY   57  55  92 NW5       30.10S
6HR MIN TEMP:  55; 6HR MAX TEMP:  59;

EAU CLAIRE     SUNNY     57  55  93 CALM      30.09R
6HR MIN TEMP:  54; 6HR MAX TEMP:  60;

MENOMONIE      SUNNY     59  56  88 W6        30.10S
6HR MIN TEMP:  58; 6HR MAX TEMP:  60;

NEW RICHMOND   SUNNY     56  55  98 CALM      30.12S
6HR MIN TEMP:  53; 6HR MAX TEMP:  58;

OSCEOLA        SUNNY     53  53 100 CALM      30.15R
6HR MIN TEMP:  52; 6HR MAX TEMP:  56;

$$

WIZ003>005-009-010-017-018-291300-
NORTH CENTRAL WISCONSIN

CITY           SKY/WX    TMP DP  RH WIND       PRES   REMARKS
WOODRUFF       CLOUDY    57  55  92 NW3       30.06R
6HR MIN TEMP:  52; 6HR MAX TEMP:  57;

RHINELANDER    PTSUNNY   54  53  97 W7        30.06R
6HR MIN TEMP:  48; 6HR MAX TEMP:  56;

EAGLE RIVER    PTSUNNY   51  51 100 W5        30.04S
6HR MIN TEMP:  46; 6HR MAX TEMP:  55; 6HR PCP:  0.01;

LAND O LAKES   MOSUNNY   55  55  98 NW3       30.05R
6HR MIN TEMP:  46; 6HR MAX TEMP:  56; 6HR PCP:  0.01;

PHILLIPS       CLOUDY    55  53  94 NW3       30.07S
6HR MIN TEMP:  51; 6HR MAX TEMP:  58; 6HR PCP:  0.10;

TOMAHAWK       CLOUDY    51  50  97 W3        30.07R FOG
6HR MIN TEMP:  46; 6HR MAX TEMP:  53; 6HR PCP:  0.02;

MEDFORD        PTSUNNY   54  53  98 NW3       30.08R
6HR MIN TEMP:  51; 6HR MAX TEMP:  55; 6HR PCP:  0.01;

MERRILL        SUNNY     50  50 100 CALM      30.06R FOG
6HR MIN TEMP:  48; 6HR MAX TEMP:  57;

$$

WIZ029-030-035-036-043>047-291300-
CENTRAL WISCONSIN

CITY           SKY/WX    TMP DP  RH WIND       PRES   REMARKS
WAUSAU         MOSUNNY   57  54  89 NW6       30.05R
6HR MIN TEMP:  54; 6HR MAX TEMP:  60;

MOSINEE        CLOUDY    55  55 100 NW5       30.06S
MARSHFIELD     PTSUNNY   58  54  86 NW8       30.06S
6HR MIN TEMP:  54; 6HR MAX TEMP:  62; 6HR PCP: TRACE;

STEVENS POINT  CLOUDY    55  53  91 CALM      30.06R
6HR MIN TEMP:  52; 6HR MAX TEMP:  61;

WAUPACA        SUNNY     60  55  84 CALM      30.04R
6HR MIN TEMP:  58; 6HR MAX TEMP:  66;

WAUTOMA        MOSUNNY   61  54  77 NW6       30.05R
6HR MIN TEMP:  56; 6HR MAX TEMP:  64;

WISC RAPIDS    CLOUDY    57  54  89 NW3       30.07R
6HR MIN TEMP:  52; 6HR MAX TEMP:  61; 6HR PCP: TRACE;

CAMP DOUGLAS   MOSUNNY   55  55 100 W5        30.06S
$$

WIZ011>013-019>022-031-037>040-048>050-291300-
NORTHEAST WISCONSIN

CITY           SKY/WX    TMP DP  RH WIND       PRES   REMARKS
ANTIGO         SUNNY     53  52  98 NW5       30.05S
6HR MIN TEMP:  49; 6HR MAX TEMP:  56;

STURGEON BAY   CLOUDY    61  54  77 N6        30.01R
6HR MIN TEMP:  55; 6HR MAX TEMP:  64;

GREEN BAY      CLOUDY    59  55  87 NW7       30.02R
6HR MIN TEMP:  56; 6HR MAX TEMP:  62;

MANITOWOC      MOSUNNY   60  56  86 NW6       30.01R
6HR MIN TEMP:  58; 6HR MAX TEMP:  63;

APPLETON       MOSUNNY   57  54  88 NW9       30.03R
CLINTONVILLE   MOSUNNY   57  54  88 NW5       30.03R
OSHKOSH        MOSUNNY   59  55  87 NW7       30.03R
6HR MIN TEMP:  57; 6HR MAX TEMP:  63;

$$

WIZ032>034-041-042-053>061-291300-
SOUTHWEST WISCONSIN

CITY           SKY/WX    TMP DP  RH WIND       PRES   REMARKS
LA CROSSE      SUNNY     59  55  87 CALM      30.09R
6HR MIN TEMP:  55; 6HR MAX TEMP:  61;

SPARTA         SUNNY     50  49  95 CALM      30.09S
6HR MIN TEMP:  47; 6HR MAX TEMP:  52;

VIROQUA        FAIR      55  55 100 W3        30.10R
6HR MIN TEMP:  53; 6HR MAX TEMP:  56;

BOSCOBEL       SUNNY     56  54  93 SW3       30.10R
6HR MIN TEMP:  53; 6HR MAX TEMP:  56;

PRAIRIE DU CHI SUNNY     56  52  88 CALM      30.10R
6HR MIN TEMP:  53; 6HR MAX TEMP:  56;

PLATTEVILLE    FAIR      53  52  95 W5        30.10S
6HR MIN TEMP:  52; 6HR MAX TEMP:  56;

$$

WIZ056-057-062-063-064-067-068-291300-
SOUTH CENTRAL WISCONSIN

CITY           SKY/WX    TMP DP  RH WIND       PRES   REMARKS
BARABOO/DELLS  SUNNY     57  51  81 W3        30.07R
6HR MIN TEMP:  55; 6HR MAX TEMP:  62;

LONE ROCK      SUNNY     59  54  83 W5        30.08R
6HR MIN TEMP:  55; 6HR MAX TEMP:  61;

WATERTOWN      SUNNY     57  54  88 CALM      30.04R
6HR MIN TEMP:  54; 6HR MAX TEMP:  59;

MADISON        MOSUNNY   60  53  77 VRB5      30.06R
6HR MIN TEMP:  59; 6HR MAX TEMP:  62;

MIDDLETON      FAIR      59  53  81 NW5       30.07R
6HR MIN TEMP:  57; 6HR MAX TEMP:  62;

MONROE         SUNNY     59  52  77 W8        30.07S
JANESVILLE     PTSUNNY   59  54  82 W6        30.05R
$$

WIZ051-052-058>065-066-070>072-291300-
SOUTHEAST WISCONSIN

CITY           SKY/WX    TMP DP  RH WIND       PRES   REMARKS
MILWAUKEE      MOSUNNY   62  54  74 NW7       30.03R
6HR MIN TEMP:  59; 6HR MAX TEMP:  64;

WAUKESHA       MOSUNNY   57  54  88 W7        30.04R
MILWAUKEE/TIMM MOSUNNY   57  54  88 CALM      30.03S
RACINE         SUNNY     61  54  77 W6        30.04R
6HR MIN TEMP:  56; 6HR MAX TEMP:  61;

BURLINGTON     SUNNY     55  53  94 CALM      30.04R
6HR MIN TEMP:  52; 6HR MAX TEMP:  58;

KENOSHA        SUNNY     59  54  83 W7        30.04R
6HR MIN TEMP:  53; 6HR MAX TEMP:  59;

FOND DU LAC    MOSUNNY   58  53  84 NW3       30.04R
6HR MIN TEMP:  54; 6HR MAX TEMP:  63; 6HR PCP: TRACE;

SHEBOYGAN      MOSUNNY   59  55  87 NW7       30.01R
6HR MIN TEMP:  56; 6HR MAX TEMP:  61; 6HR PCP: TRACE;

WEST BEND      SUNNY     59  52  77 NW6       30.03R
JUNEAU         SUNNY     57  53  85 W3        30.06R
6HR MIN TEMP:  55; 6HR MAX TEMP:  59;

$$

LSZ147-162-291300-
LAKE SUPERIOR

STATION/POSITION TIME  TEMP    WIND        PRES    WAVE
                       AIR SEA DIR/SP/G            HT/PER
                 (UTC) (F)     (DEG/KT/KT) (MB)    (FT/S)
W MID LAKE BUOY  1150   52 44  280/  4/  8 1016.7R   1
PORT WING        1100   59     190/  5/  6 1017.9S
SAXON HARBOR     1100          190/  5/  7 1017.6S
$$

LMZ867-665-643>646-291300-
LAKE MICHIGAN

STATION/POSITION TIME  TEMP    WIND        PRES    WAVE
                       AIR SEA DIR/SP/G            HT/PER
                 (UTC) (F)     (DEG/KT/KT) (MB)    (FT/S)
N MID LAKE BUOY  1150   55 52  280/  6/  6 1014.2R   1
NORTHPORT PIER   1100   61     320/ 13/ 16 1014.6S
SISTER BAY       1110   62     340/ 15/ 18   N/A
ALGOMA LAKESHORE 1106          310/  5/  7   N/A
KEWAUNEE LAKESHO 1200   59     300/  5/  8 1016.4R
SHEBOYGAN LAKESH 1200   62     300/ 10/ 12 1016.4R
PORT WASHINGTON  1100   61     290/  5/  8 1016.6S
ATWATER BUOY     1200   62     270/ 10     1017.4R
MILWAUKEE LAKESH 1200   62     300/  8/ 12   N/A
S MID LAKE BUOY  1150   61 60  270/ 10/ 12 1016.2R   1/ 5
KENOSHA   LAKESH 1200   62     290/  9/ 13 1016.6R
$$

TC  - TEMPERATURE IN CELSIUS
VSB - VISIBILITY IN STATUTE MILES
WCI - WIND CHILL INDEX
HX  - HEAT INDEX



USA.gov is the U.S. government's official web portal to all federal, state and local government web resources and services.